Missoula, MT

10:59 AM MST on December 03, 2016 (GMT -0700)
Missoula International

Weather History for KMSO - May, 2014

Change the Weather History Date:

Saturday, May 3, 2014

  Actual Average Record
Temperature  
Mean Temperature 57 °F 50 °F  
Max Temperature 68 °F 64 °F 86 °F (1966)
Min Temperature 46 °F 36 °F 22 °F (1894)
Degree Days  
Heating Degree Days 8 15  
Month to date heating degree days 23 46  
Since 1 July heating degree days 7015 6809  
Cooling Degree Days 0 0  
Month to date cooling degree days 0 0  
Year to date cooling degree days 0 0  
Growing Degree Days 7 (Base 50)    
Moisture  
Dew Point 41 °F    
Average Humidity 60    
Maximum Humidity 86    
Minimum Humidity 34    
Precipitation  
Precipitation 0.10 in 0.04 in 1.40 in (1932)
Month to date precipitation 0.10 0.13  
Year to date precipitation 5.94 3.90  
Snow  
Snow 0.00 in - - ()
Month to date snowfall 0.0  
Year to date snowfall 51.8  
Since 1 July snowfall 65.7  
Snow Depth 0.00 in    
Sea Level Pressure  
Sea Level Pressure 29.80 in    
Wind  
Wind Speed 6 mph (NNW)    
Max Wind Speed 28 mph    
Max Gust Speed 35 mph    
Visibility 9 miles    
Events Rain    
T = Trace of Precipitation, MM = Missing Value Source: NWS Daily Summary

Daily Weather History Graph

Daily Weather History Graph

Search for Another Location

Airport or City:

Trip Planner

Search our weather history database for the weather conditions in past years. The results will help you decide how hot, cold, wet, or windy it might be!

Date:

Astronomy

May. 03, 2014 Rise Set
Actual Time 6:17 AM MDT 8:49 PM MDT
Civil Twilight 5:43 AM MDT 9:23 PM MDT
Nautical Twilight 5:00 AM MDT 10:06 PM MDT
Astronomical Twilight 4:11 AM MDT 10:56 PM MDT
Moon 9:48 AM MDT 12:17 AM MDT
Length of Visible Light 15h 40m
Length of Day
14h 31m
Waxing Crescent, 20% of the Moon is Illuminated
May 3
Waxing Crescent
May 6
First Quarter
May 14
Full
May 21
Last Quarter
May 28
New

Hourly Weather History & Observations

Time (MDT) Temp. Dew Point Humidity Pressure Visibility Wind Dir Wind Speed Gust Speed Precip Events Conditions
12:53 AM 55.0 °F 37.0 °F 51% 29.81 in 10.0 mi North 3.5 mph - N/A   Clear
1:53 AM 54.0 °F 37.9 °F 55% 29.81 in 10.0 mi North 4.6 mph - N/A   Mostly Cloudy
2:53 AM 50.0 °F 39.9 °F 68% 29.80 in 10.0 mi Calm Calm - N/A   Overcast
3:53 AM 50.0 °F 39.2 °F 66% 29.85 in 10.0 mi WNW 4.6 mph - N/A   Overcast
4:23 AM 50.0 °F 41.0 °F 71% 29.85 in 8.0 mi NNE 3.5 mph - 0.00 in Rain Light Rain
4:53 AM 50.0 °F 43.0 °F 77% 29.82 in 10.0 mi Calm Calm - 0.00 in   Overcast
5:53 AM 46.9 °F 43.0 °F 86% 29.80 in 8.0 mi Calm Calm - 0.00 in   Mostly Cloudy
6:53 AM 50.0 °F 42.1 °F 74% 29.80 in 8.0 mi SE 3.5 mph - N/A   Overcast
7:53 AM 48.9 °F 43.0 °F 80% 29.81 in 8.0 mi WNW 3.5 mph - N/A   Overcast
8:53 AM 52.0 °F 42.1 °F 69% 29.81 in 9.0 mi Calm Calm - N/A   Overcast
9:53 AM 53.1 °F 43.0 °F 69% 29.82 in 9.0 mi Calm Calm - N/A   Overcast
10:53 AM 55.9 °F 41.0 °F 57% 29.80 in 10.0 mi Calm Calm - N/A   Mostly Cloudy
11:53 AM 57.9 °F 41.0 °F 53% 29.80 in 10.0 mi West 4.6 mph - N/A   Overcast
12:53 PM 62.1 °F 37.0 °F 39% 29.77 in 10.0 mi NNW 8.1 mph - N/A   Mostly Cloudy
1:53 PM 64.4 °F 37.4 °F 37% 29.78 in 10.0 mi North 6.9 mph - N/A   Mostly Cloudy
2:53 PM 66.0 °F 37.9 °F 36% 29.73 in 10.0 mi Variable 6.9 mph - N/A   Mostly Cloudy
3:53 PM 64.9 °F 36.0 °F 34% 29.72 in 10.0 mi Variable 5.8 mph - N/A   Mostly Cloudy
4:53 PM 66.0 °F 39.9 °F 38% 29.73 in 10.0 mi WNW 24.2 mph 34.5 mph 0.00 in   Mostly Cloudy
5:53 PM 60.1 °F 41.0 °F 49% 29.77 in 10.0 mi North 18.4 mph 27.6 mph N/A   Mostly Cloudy
6:53 PM 55.0 °F 42.1 °F 62% 29.78 in 10.0 mi North 16.1 mph 24.2 mph N/A   Overcast
7:53 PM 53.1 °F 45.0 °F 74% 29.81 in 10.0 mi North 10.4 mph - 0.00 in   Overcast
8:53 PM 51.1 °F 45.0 °F 80% 29.82 in 10.0 mi North 8.1 mph - 0.01 in Rain Light Rain
9:53 PM 50.0 °F 45.0 °F 83% 29.83 in 10.0 mi West 4.6 mph - 0.03 in   Overcast
10:53 PM 48.9 °F 44.1 °F 83% 29.83 in 10.0 mi North 3.5 mph - 0.01 in Rain Light Rain
11:35 PM 48.9 °F 45.0 °F 86% 29.85 in 10.0 mi West 4.6 mph - 0.00 in Rain Light Rain
11:53 PM 48.0 °F 45.0 °F 89% 29.84 in 4.0 mi Calm Calm - 0.03 in Rain Rain